Location: Northam
(31.6525°S, 116.6655°E)
Time: 14:34:24
(UTC+08:00)

N. Korean satellite - Visible Passes

Search period start: 12 August 2020 00:00
Search period end: 22 August 2020 00:00
Orbit: 453 x 506 km, 97.2° (Epoch: 11 August)

Date Brightness Start Highest point End Pass type
(mag) Time Alt. Az. Time Alt. Az. Time Alt. Az.
12 Aug 8.4 04:38:19 10° NE 04:41:39 31° ESE 04:41:57 31° ESE visible
12 Aug 8.6 06:13:37 10° WNW 06:15:03 12° W 06:16:14 11° WSW visible
13 Aug 9.6 04:13:48 10° ENE 04:15:57 15° ESE 04:16:03 15° ESE visible
13 Aug 7.6 05:45:52 10° NNW 05:49:01 26° W 05:50:20 21° WSW visible
13 Aug 10.0 18:52:15 10° WSW 18:53:01 11° WSW 18:53:46 10° W visible
14 Aug 6.6 05:19:23 10° N 05:23:04 62° W 05:24:27 35° SSW visible
14 Aug 9.2 18:24:27 10° SSW 18:27:20 23° WSW 18:30:10 10° NW visible
15 Aug 7.4 04:53:35 10° NNE 04:57:13 53° ESE 04:58:35 33° SSE visible
16 Aug 9.0 04:28:27 10° NE 04:31:28 23° ESE 04:32:45 19° SE visible
16 Aug 8.3 06:02:20 10° NW 06:04:43 16° W 06:07:02 10° SW visible
17 Aug 10.0 04:04:42 10° E 04:05:46 11° ESE 04:06:52 10° SE visible
17 Aug 7.2 05:35:16 10° NNW 05:38:43 36° W 05:41:14 16° SW visible
17 Aug 9.7 18:40:51 10° SW 18:42:49 14° WSW 18:44:44 10° WNW visible
18 Aug 6.5 05:09:04 10° NNE 05:12:48 88° W 05:15:29 18° SSW visible
18 Aug 8.6 18:13:54 10° S 18:17:06 31° WSW 18:20:12 10° NW visible
19 Aug 8.1 04:43:30 10° NE 04:46:58 38° ESE 04:49:48 14° S visible
20 Aug 9.4 04:18:42 10° ENE 04:21:14 18° ESE 04:23:47 10° SSE visible
20 Aug 7.9 05:51:26 10° NNW 05:54:22 22° W 05:57:21 10° SW visible
21 Aug 6.8 05:24:46 10° N 05:28:24 50° W 05:32:04 10° SSW visible
21 Aug 9.5 18:30:00 10° SSW 18:32:32 19° WSW 18:35:03 10° WNW visible
